Sydney, Australia

11:41 PM AEDT on January 19, 2018 (GMT +1100)
Kingsford Smith International

Weather History for YSSY - January, 2014

Change the Weather History Date:

Thursday, January 23, 2014

  Actual Average Record
Temperature  
Mean Temperature 72 °F -  
Max Temperature 77 °F 80 °F 95 °F (2001)
Min Temperature 67 °F 66 °F 33 °F (2005)
Cooling Degree Days 7    
Growing Degree Days 22 (Base 50)    
Moisture  
Dew Point 58 °F    
Average Humidity 59    
Maximum Humidity 83    
Minimum Humidity 35    
Precipitation  
Precipitation 0.00 in 0.15 in - ()
Sea Level Pressure  
Sea Level Pressure 30.15 in    
Wind  
Wind Speed 12 mph ()    
Max Wind Speed 17 mph    
Max Gust Speed -    
Visibility 7.7 miles    
Events      
Averages and records for this station are not official NWS values.
T = Trace of Precipitation, MM = Missing Value Source: Averaged Metar Reports

Daily Weather History Graph

Daily Weather History Graph

Search for Another Location

Airport or City:

Trip Planner

Search our weather history database for the weather conditions in past years. The results will help you decide how hot, cold, wet, or windy it might be!

Date:

Astronomy

Jan. 23, 2014 Rise Set
Actual Time 6:07 AM AEDT 8:06 PM AEDT
Civil Twilight 5:39 AM AEDT 8:34 PM AEDT
Nautical Twilight 5:05 AM AEDT 9:07 PM AEDT
Astronomical Twilight 4:29 AM AEDT 9:43 PM AEDT
Moon 11:48 PM AEDT (1/23) 12:17 PM AEDT (1/23)
Length of Visible Light 14h 54m
Length of Day
13h 59m
Waning Gibbous, 62% of the Moon is Illuminated
Jan 23
Waning Gibbous
Jan 24
Last Quarter
Jan 31
New
Feb 7
First Quarter
Feb 15
Full

Hourly Weather History & Observations

Time (AEDT) Temp. Dew Point Humidity Pressure Visibility Wind Dir Wind Speed Gust Speed Precip Events Conditions
12:00 AM 70 °F 61 °F 67% 30.20 in 16 mi East 11.5 mph - -   Partly Cloudy
12:00 AM 69.8 °F 60.8 °F 73% 30.18 in - East 11.5 mph - N/A   Clear
12:30 AM 69.8 °F 60.8 °F 73% 30.18 in 6.2 mi East 10.4 mph - N/A   Mostly Cloudy
1:00 AM 70 °F 60 °F 63% 30.19 in - East 13.8 mph - -  
1:00 AM 69.8 °F 60.8 °F 73% 30.18 in 6.2 mi East 13.8 mph - N/A   Mostly Cloudy
1:30 AM 69.8 °F 59.0 °F 68% 30.15 in 6.2 mi East 13.8 mph - N/A   Mostly Cloudy
2:00 AM 70 °F 60 °F 62% 30.18 in - East 8.1 mph - -  
2:00 AM 69.8 °F 60.8 °F 73% 30.15 in 6.2 mi East 8.1 mph - N/A   Mostly Cloudy
2:30 AM 69.8 °F 59.0 °F 68% 30.15 in 6.2 mi East 10.4 mph - N/A   Mostly Cloudy
3:00 AM 69 °F 60 °F 65% 30.17 in 16 mi ESE 15.0 mph - -   Partly Cloudy
3:00 AM 69.8 °F 60.8 °F 73% 30.15 in 6.2 mi ESE 15.0 mph - N/A   Mostly Cloudy
3:30 AM 68.0 °F 62.6 °F 83% 30.15 in 6.2 mi ESE 8.1 mph - N/A   Mostly Cloudy
4:00 AM 68 °F 60 °F 70% 30.16 in - East 10.4 mph - -  
4:00 AM 68.0 °F 60.8 °F 78% 30.15 in 6.2 mi East 10.4 mph - N/A   Mostly Cloudy
4:30 AM 68.0 °F 60.8 °F 78% 30.15 in 6.2 mi East 12.7 mph - N/A   Mostly Cloudy
5:00 AM 69 °F 61 °F 68% 30.16 in - East 11.5 mph - -  
5:00 AM 69.8 °F 60.8 °F 73% 30.15 in 6.2 mi East 11.5 mph - N/A   Mostly Cloudy
5:30 AM 69.8 °F 60.8 °F 73% 30.15 in 6.2 mi East 11.5 mph - N/A   Mostly Cloudy
6:00 AM 69 °F 60 °F 65% 30.18 in 12 mi East 9.2 mph - -   Partly Cloudy
6:00 AM 69.8 °F 59.0 °F 68% 30.15 in 6.2 mi East 9.2 mph - N/A   Mostly Cloudy
6:30 AM 69.8 °F 59.0 °F 68% 30.18 in 6.2 mi East 13.8 mph - N/A   Mostly Cloudy
7:00 AM 70 °F 58 °F 57% 30.19 in - East 15.0 mph - -  
7:00 AM 69.8 °F 59.0 °F 68% 30.18 in 6.2 mi East 15.0 mph - N/A   Mostly Cloudy
7:30 AM 69.8 °F 57.2 °F 64% 30.18 in 6.2 mi East 17.3 mph - N/A   Mostly Cloudy
8:00 AM 71 °F 57 °F 53% 30.21 in - East 15.0 mph - -  
8:00 AM 71.6 °F 57.2 °F 60% 30.21 in 6.2 mi East 15.0 mph - N/A   Mostly Cloudy
8:30 AM 71.6 °F 57.2 °F 60% 30.21 in 6.2 mi ENE 12.7 mph - N/A   Mostly Cloudy
9:00 AM 73 °F 56 °F 46% 30.22 in 16 mi East 15.0 mph - -   Partly Cloudy
9:00 AM 73.4 °F 57.2 °F 57% 30.21 in 6.2 mi East 15.0 mph - N/A   Mostly Cloudy
9:30 AM 73.4 °F 57.2 °F 57% 30.21 in 6.2 mi East 13.8 mph - N/A   Scattered Clouds
10:00 AM 74 °F 56 °F 44% 30.22 in - East 13.8 mph - -  
10:00 AM 75.2 °F 57.2 °F 53% 30.21 in 6.2 mi East 13.8 mph - N/A   Mostly Cloudy
10:30 AM 75.2 °F 55.4 °F 50% 30.21 in 6.2 mi East 13.8 mph - N/A   Scattered Clouds
11:00 AM 77 °F 56 °F 37% 30.21 in - East 13.8 mph - -  
11:00 AM 77.0 °F 55.4 °F 47% 30.21 in 6.2 mi East 13.8 mph - N/A   Scattered Clouds
11:30 AM 75.2 °F 55.4 °F 50% 30.18 in 6.2 mi East 15.0 mph - N/A   Mostly Cloudy
12:00 PM 76 °F 55 °F 38% 30.20 in 19 mi East 13.8 mph - -   Partly Cloudy
12:00 PM 75.2 °F 55.4 °F 50% 30.18 in 6.2 mi East 13.8 mph - N/A   Mostly Cloudy
12:30 PM 75.2 °F 55.4 °F 50% 30.18 in 6.2 mi East 16.1 mph - N/A   Mostly Cloudy
1:00 PM 75 °F 55 °F 39% 30.18 in - ENE 16.1 mph - -  
1:00 PM 75.2 °F 55.4 °F 50% 30.15 in 6.2 mi ENE 16.1 mph - N/A   Mostly Cloudy
1:30 PM 77.0 °F 55.4 °F 47% 30.15 in 6.2 mi East 13.8 mph - N/A   Mostly Cloudy
2:00 PM 75 °F 55 °F 39% 30.16 in - East 17.3 mph - -  
2:00 PM 75.2 °F 55.4 °F 50% 30.15 in 6.2 mi East 17.3 mph - N/A   Mostly Cloudy
2:30 PM 75.2 °F 55.4 °F 50% 30.15 in 6.2 mi East 16.1 mph - N/A   Mostly Cloudy
3:00 PM 77 °F 54 °F 35% 30.15 in 19 mi East 16.1 mph - -   Partly Cloudy
3:00 PM 77.0 °F 53.6 °F 44% 30.12 in 6.2 mi East 16.1 mph - N/A   Mostly Cloudy
3:30 PM 75.2 °F 55.4 °F 50% 30.12 in 6.2 mi East 16.1 mph - N/A   Mostly Cloudy
4:00 PM 75 °F 56 °F 40% 30.13 in - East 15.0 mph - -  
4:00 PM 75.2 °F 55.4 °F 50% 30.12 in 6.2 mi East 15.0 mph - N/A   Mostly Cloudy
4:30 PM 75.2 °F 55.4 °F 50% 30.12 in 6.2 mi East 17.3 mph - N/A   Mostly Cloudy
5:00 PM 75 °F 57 °F 44% 30.12 in - ENE 12.7 mph - -  
5:00 PM 75.2 °F 57.2 °F 53% 30.09 in 6.2 mi ENE 12.7 mph - N/A   Mostly Cloudy
5:30 PM 75.2 °F 59.0 °F 57% 30.09 in 6.2 mi ENE 13.8 mph - N/A   Mostly Cloudy
6:00 PM 74 °F 58 °F 46% 30.11 in 16 mi NE 17.3 mph - -   Partly Cloudy
6:30 PM 73.4 °F 59.0 °F 61% 30.09 in 6.2 mi NE 15.0 mph - N/A   Mostly Cloudy
7:00 PM 73 °F 57 °F 48% 30.12 in - ENE 11.5 mph - -  
7:00 PM 73.4 °F 57.2 °F 57% 30.09 in 6.2 mi ENE 11.5 mph - N/A   Mostly Cloudy
7:30 PM 71.6 °F 59.0 °F 64% 30.12 in 6.2 mi ENE 10.4 mph - N/A   Mostly Cloudy
8:00 PM 72 °F 59 °F 54% 30.13 in - NE 10.4 mph - -  
8:00 PM 71.6 °F 59.0 °F 64% 30.12 in 6.2 mi NE 10.4 mph - N/A   Mostly Cloudy
8:30 PM 71.6 °F 59.0 °F 64% 30.09 in 6.2 mi ENE 10.4 mph - N/A   Mostly Cloudy
9:00 PM 71 °F 61 °F 62% 30.11 in 16 mi East 10.4 mph - -   Partly Cloudy
9:00 PM 71.6 °F 60.8 °F 69% 30.09 in 6.2 mi ENE 10.4 mph - N/A   Mostly Cloudy
9:30 PM 71.6 °F 62.6 °F 73% 30.09 in 6.2 mi ENE 10.4 mph - N/A   Mostly Cloudy
10:00 PM 72 °F 62 °F 63% 30.13 in - NE 8.1 mph - -  
10:00 PM 71.6 °F 62.6 °F 73% 30.12 in 6.2 mi NE 8.1 mph - N/A   Mostly Cloudy
10:30 PM 71.6 °F 62.6 °F 73% 30.09 in 6.2 mi ENE 8.1 mph - N/A   Mostly Cloudy
11:00 PM 72 °F 64 °F 68% 30.11 in - ENE 10.4 mph - -  
11:00 PM 71.6 °F 64.4 °F 78% 30.09 in 6.2 mi ENE 10.4 mph - N/A   Mostly Cloudy
11:30 PM 71.6 °F 64.4 °F 78% 30.06 in 6.2 mi ENE 11.5 mph - N/A   Mostly Cloudy